Location: Borbetomagus
(49.6328°N, 8.3592°E)
Time: 01:58:42
(UTC+00:00)

NOSS 2-1 (E) - Pass Details

Date: 19 May 2025
Orbit: 385 x 1749 km, 63.3° (Epoch: 07 May)

Event Time Altitude Azimuth Distance (km) Brightness Sun altitude
Exits shadow 22:21:20 44° 88° (E) 587 3.3 -19.1°
Drops below altitude 10° 22:23:44 10° 51° (NE) 1,438 5.7 -19.2°
Sets 22:25:41 0° 46° (NE) 2,279 6.9 -19.2°
